Погода в Ла-Пунта

Аргентина     28°22′17″S   64°47′25″W
темп.,
°C
ветер,
м/с
пор.,
м/с
влажн.,
%
обл.,
%
осадки,
мм/ч
давл.,
гПа
погр.,
м
8 мая, сб
сб800:00+11св31156100 0.0 1022302
03:00+9св3860100 0.0 1021198
06:00+8ссв411681 0.0 1021282
09:00+10ссв512680 0.0 1022367
12:00+16ссв69500 0.0 1021816
15:00+19св69470 0.0 10171324
18:00+17св58560 0.0 1016449
21:00+13всв387232 0.0 1018157
9 мая, вс
вс900:00+12всв3106892 0.0 1019307
03:00+12св3106815 0.0 1017290
06:00+9всв11770 0.0 101710
09:00+11ююв11700 0.0 101977
12:00+17в33553 0.0 1019657
15:00+19в435113 0.0 10161186
18:00+16в45632 0.0 1017268
21:00+12св117675 0.0 102011
10 мая, пн
пн1000:00+14ююв007190 0.0 102113
03:00+13юз227237 0.0 102136
06:00+11юз22787 0.0 102224
09:00+13ююз247314 0.0 1024124
12:00+17ю3457100 0.0 1025516
15:00+18ююв4555100 0.0 1023781
18:00+16юв3562100 0.0 1022306
21:00+14св1168100 0.0 102411
11 мая, вт
вт1100:00+14ссв1166100 0.0 102411
03:00+13вюв2266100 0.0 102346
06:00+10вюв2280100 0.0 102222
09:00+11в2582100 0.0 1024221
12:00+15в4466100 0.0 1024701
15:00+16в2259100 0.0 1021941
18:00+15всв236628 0.0 1021117
21:00+12св227699 0.0 102327
12 мая, ср
ср1200:00+11с338222 0.0 102341
03:00+10ссз23865 0.0 102238
06:00+10ссз33915 0.0 102154
09:00+12с24834 0.0 1022134
12:00+18с465952 0.0 1021927
15:00+20ссв5652100 0.0 10181218
18:00+17ссв4865100 0.0 1018385
21:00+15ссв387299 0.0 1019187